This is the latest recevied weather packets stored in our database for station/object FW0690. If no packets are shown the sender has not sent any weather packets the latest 10 day(s).
| Time | Temp. | Humidity | Pressure | Rain* | Wind** | Luminosity | Snow |
|---|---|---|---|---|---|---|---|
| 1777540472 | 5.56° C | 73% | 1021.8 hPa | - | - | 14 W/m² | - |
| 1777540112 | 5.56° C | 73% | 1021.8 hPa | - | - | 10 W/m² | - |
| 1777539752 | 5.56° C | 73% | 1021.8 hPa | - | - | 16 W/m² | - |
| 1777539392 | 5.56° C | 73% | 1021.8 hPa | - | - | 16 W/m² | - |
| 1777539392 | 5.56° C | 73% | 1021.8 hPa | - | - | 16 W/m² | - |
| 1777539032 | 5.56° C | 73% | 1021.8 hPa | - | - | 17 W/m² | - |
| 1777538672 | 5.56° C | 73% | 1021.7 hPa | - | - | 18 W/m² | - |
| 1777538312 | 5.56° C | 73% | 1021.8 hPa | - | - | 14 W/m² | - |
| 1777537952 | 5.56° C | 73% | 1021.7 hPa | - | - | 14 W/m² | - |
| 1777537592 | 5.56° C | 73% | 1021.7 hPa | - | - | 16 W/m² | - |
| 1777537232 | 5.56° C | 73% | 1021.7 hPa | - | - | 14 W/m² | - |
| 1777536872 | 5.56° C | 73% | 1021.6 hPa | - | - | 14 W/m² | - |
| 1777536512 | 5.56° C | 73% | 1021.6 hPa | - | - | 16 W/m² | - |
| 1777536152 | 5.56° C | 73% | 1021.6 hPa | - | - | 16 W/m² | - |
| 1777535792 | 5.56° C | 73% | 1021.5 hPa | - | - | 17 W/m² | - |
| 1777535432 | 5.56° C | 73% | 1021.5 hPa | - | - | 18 W/m² | - |
| 1777535072 | 5.56° C | 73% | 1021.5 hPa | - | - | 16 W/m² | - |
| 1777534712 | 5.56° C | 73% | 1021.4 hPa | - | - | 18 W/m² | - |
| 1777534352 | 5.56° C | 73% | 1021.5 hPa | - | - | 16 W/m² | - |
| 1777533992 | 5.56° C | 73% | 1021.3 hPa | - | - | 16 W/m² | - |
| 1777533632 | 5.56° C | 73% | 1021.4 hPa | - | - | 15 W/m² | - |
| 1777533271 | 5.56° C | 72% | 1021.4 hPa | - | - | 13 W/m² | - |
| 1777532912 | 5.56° C | 72% | 1021.4 hPa | - | - | 11 W/m² | - |
| 1777532552 | 5.56° C | 72% | 1021.4 hPa | - | - | 11 W/m² | - |
| 1777532192 | 5.56° C | 72% | 1021.2 hPa | - | - | 8 W/m² | - |
* Rain since midnight (hover to see other rain measurements)
** Current wind speed in m/s (hover to see current wind gust speed)